Time,TemperatureF,DewpointF,PressureIn,WindDirection,WindDirectionDegrees,WindSpeedMPH,WindSpeedGustMPH,Humidity,HourlyPrecipIn,Conditions,Clouds,dailyrainin,SolarRadiationWatts/m^2,SoftwareType,DateUTC
2013-05-24 00:00:00,51.0,26.0,-100.00,North,5,0.0,10.0,37,0.00,,,0.00,0.000000,,2013-05-24 07:00:00,
2013-05-24 00:22:00,51.0,26.0,-100.00,North,5,0.0,10.0,37,0.00,,,0.00,0.000000,,2013-05-24 07:22:00,
2013-05-24 00:32:00,51.0,26.0,-100.00,North,5,0.0,10.0,37,0.00,,,0.00,0.000000,,2013-05-24 07:32:00,
2013-05-24 00:42:00,51.0,26.0,-100.00,North,5,0.0,10.0,37,0.00,,,0.00,0.000000,,2013-05-24 07:42:00,
2013-05-24 00:52:00,51.0,26.0,-100.00,North,5,0.0,10.0,37,0.00,,,0.00,0.000000,,2013-05-24 07:52:00,
2013-05-24 01:00:00,46.0,24.0,-100.00,WNW,292,6.0,10.0,42,0.00,,,0.00,0.000000,,2013-05-24 08:00:00,
2013-05-24 01:22:00,46.0,24.0,-100.00,WNW,292,6.0,10.0,42,0.00,,,0.00,0.000000,,2013-05-24 08:22:00,
2013-05-24 01:33:00,46.0,24.0,-100.00,WNW,292,6.0,10.0,42,0.00,,,0.00,0.000000,,2013-05-24 08:33:00,
2013-05-24 02:00:00,45.0,24.0,-100.00,WNW,295,6.0,10.0,44,-99.99,,,0.00,0.000000,,2013-05-24 09:00:00,
2013-05-24 02:22:00,45.0,24.0,-100.00,WNW,295,6.0,10.0,44,-99.99,,,0.00,0.000000,,2013-05-24 09:22:00,
2013-05-24 02:33:00,45.0,24.0,-100.00,WNW,295,6.0,10.0,44,-99.99,,,0.00,0.000000,,2013-05-24 09:33:00,
2013-05-24 02:42:00,45.0,24.0,-100.00,WNW,295,6.0,10.0,44,-99.99,,,0.00,0.000000,,2013-05-24 09:42:00,
2013-05-24 02:53:00,45.0,24.0,-100.00,WNW,295,6.0,10.0,44,-99.99,,,0.00,0.000000,,2013-05-24 09:53:00,
2013-05-24 03:00:00,44.0,24.0,-100.00,WNW,297,5.0,9.0,45,-99.99,,,0.00,0.000000,,2013-05-24 10:00:00,
2013-05-24 03:23:00,44.0,24.0,-100.00,WNW,297,5.0,9.0,45,-99.99,,,0.00,0.000000,,2013-05-24 10:23:00,
2013-05-24 03:33:00,44.0,24.0,-100.00,WNW,297,5.0,9.0,45,-99.99,,,0.00,0.000000,,2013-05-24 10:33:00,
2013-05-24 04:00:00,45.0,26.0,-100.00,WNW,293,9.0,10.0,47,-99.99,,,0.00,0.000000,,2013-05-24 11:00:00,
2013-05-24 04:22:00,45.0,26.0,-100.00,WNW,293,9.0,10.0,47,-99.99,,,0.00,0.000000,,2013-05-24 11:22:00,
2013-05-24 04:32:00,45.0,26.0,-100.00,WNW,293,9.0,10.0,47,-99.99,,,0.00,0.000000,,2013-05-24 11:32:00,
2013-05-24 04:42:00,45.0,26.0,-100.00,WNW,293,9.0,10.0,47,-99.99,,,0.00,0.000000,,2013-05-24 11:42:00,
2013-05-24 04:52:00,45.0,26.0,-100.00,WNW,293,9.0,10.0,47,-99.99,,,0.00,0.000000,,2013-05-24 11:52:00,
2013-05-24 05:00:00,44.0,26.0,-100.00,WNW,295,8.0,12.0,48,0.00,,,0.00,0.000000,,2013-05-24 12:00:00,
2013-05-24 05:22:00,44.0,26.0,-100.00,WNW,295,8.0,12.0,48,0.00,,,0.00,0.000000,,2013-05-24 12:22:00,
2013-05-24 05:33:00,44.0,26.0,-100.00,WNW,295,8.0,12.0,48,0.00,,,0.00,0.000000,,2013-05-24 12:33:00,
2013-05-24 05:42:00,44.0,26.0,-100.00,WNW,295,8.0,12.0,48,0.00,,,0.00,0.000000,,2013-05-24 12:42:00,
2013-05-24 05:52:00,44.0,26.0,-100.00,WNW,295,8.0,12.0,48,0.00,,,0.00,0.000000,,2013-05-24 12:52:00,
2013-05-24 06:00:00,44.0,25.0,-100.00,WNW,296,6.0,11.0,46,-99.99,,,0.00,0.000000,,2013-05-24 13:00:00,
2013-05-24 06:22:00,44.0,25.0,-100.00,WNW,296,6.0,11.0,46,-99.99,,,0.00,0.000000,,2013-05-24 13:22:00,
2013-05-24 06:32:00,44.0,25.0,-100.00,WNW,296,6.0,11.0,46,-99.99,,,0.00,0.000000,,2013-05-24 13:32:00,
2013-05-24 06:42:00,44.0,25.0,-100.00,WNW,296,6.0,11.0,46,-99.99,,,0.00,0.000000,,2013-05-24 13:42:00,
2013-05-24 06:52:00,44.0,25.0,-100.00,WNW,296,6.0,11.0,46,-99.99,,,0.00,0.000000,,2013-05-24 13:52:00,
2013-05-24 07:22:00,43.0,25.0,-100.00,WNW,291,8.0,11.0,48,0.00,,,0.00,3.000000,,2013-05-24 14:22:00,
2013-05-24 07:32:00,43.0,25.0,-100.00,WNW,291,8.0,11.0,48,0.00,,,0.00,3.000000,,2013-05-24 14:32:00,
2013-05-24 07:42:00,43.0,25.0,-100.00,WNW,291,8.0,11.0,48,0.00,,,0.00,3.000000,,2013-05-24 14:42:00,
2013-05-24 07:52:00,43.0,25.0,-100.00,WNW,291,8.0,11.0,48,0.00,,,0.00,3.000000,,2013-05-24 14:52:00,
2013-05-24 08:00:00,50.0,25.0,-100.00,East,101,0.0,11.0,37,-99.99,,,0.00,119.000000,,2013-05-24 15:00:00,
2013-05-24 08:22:00,50.0,25.0,-100.00,East,101,0.0,11.0,37,-99.99,,,0.00,119.000000,,2013-05-24 15:22:00,
2013-05-24 08:33:00,50.0,25.0,-100.00,East,101,0.0,11.0,37,-99.99,,,0.00,119.000000,,2013-05-24 15:33:00,
2013-05-24 08:43:00,50.0,25.0,-100.00,East,101,0.0,11.0,37,-99.99,,,0.00,119.000000,,2013-05-24 15:43:00,
2013-05-24 08:52:00,50.0,25.0,-100.00,East,101,0.0,11.0,37,-99.99,,,0.00,119.000000,,2013-05-24 15:52:00,
2013-05-24 09:00:00,57.0,27.0,-100.00,East,100,3.0,5.0,31,-99.99,,,0.00,410.000000,,2013-05-24 16:00:00,
2013-05-24 09:22:00,57.0,27.0,-100.00,East,100,3.0,5.0,31,-99.99,,,0.00,410.000000,,2013-05-24 16:22:00,
2013-05-24 09:32:00,57.0,27.0,-100.00,East,100,3.0,5.0,31,-99.99,,,0.00,410.000000,,2013-05-24 16:32:00,
2013-05-24 09:42:00,57.0,27.0,-100.00,East,100,3.0,5.0,31,-99.99,,,0.00,410.000000,,2013-05-24 16:42:00,
2013-05-24 09:52:00,57.0,27.0,-100.00,East,100,3.0,5.0,31,-99.99,,,0.00,410.000000,,2013-05-24 16:52:00,
2013-05-24 10:00:00,59.0,25.0,-100.00,ESE,106,5.0,9.0,27,-99.99,,,0.00,693.000000,,2013-05-24 17:00:00,
2013-05-24 10:22:00,59.0,25.0,-100.00,ESE,106,5.0,9.0,27,-99.99,,,0.00,693.000000,,2013-05-24 17:22:00,
2013-05-24 10:32:00,59.0,25.0,-100.00,ESE,106,5.0,9.0,27,-99.99,,,0.00,693.000000,,2013-05-24 17:32:00,
2013-05-24 10:42:00,59.0,25.0,-100.00,ESE,106,5.0,9.0,27,-99.99,,,0.00,693.000000,,2013-05-24 17:42:00,
2013-05-24 10:52:00,59.0,25.0,-100.00,ESE,106,5.0,9.0,27,-99.99,,,0.00,693.000000,,2013-05-24 17:52:00,
2013-05-24 11:00:00,64.0,26.0,-100.00,SE,136,4.0,10.0,24,-99.99,,,0.00,954.000000,,2013-05-24 18:00:00,
2013-05-24 11:22:00,64.0,26.0,-100.00,SE,136,4.0,10.0,24,-99.99,,,0.00,954.000000,,2013-05-24 18:22:00,
2013-05-24 11:32:00,64.0,26.0,-100.00,SE,136,4.0,10.0,24,-99.99,,,0.00,954.000000,,2013-05-24 18:32:00,
2013-05-24 11:42:00,64.0,26.0,-100.00,SE,136,4.0,10.0,24,-99.99,,,0.00,954.000000,,2013-05-24 18:42:00,
2013-05-24 11:52:00,64.0,26.0,-100.00,SE,136,4.0,10.0,24,-99.99,,,0.00,954.000000,,2013-05-24 18:52:00,
2013-05-24 12:00:00,68.0,27.0,-100.00,ESE,123,4.0,11.0,21,0.00,,,0.00,1170.000000,,2013-05-24 19:00:00,
2013-05-24 12:22:00,68.0,27.0,-100.00,ESE,123,4.0,11.0,21,0.00,,,0.00,1170.000000,,2013-05-24 19:22:00,
2013-05-24 12:32:00,68.0,27.0,-100.00,ESE,123,4.0,11.0,21,0.00,,,0.00,1170.000000,,2013-05-24 19:32:00,
2013-05-24 12:42:00,68.0,27.0,-100.00,ESE,123,4.0,11.0,21,0.00,,,0.00,1170.000000,,2013-05-24 19:42:00,
2013-05-24 12:52:00,68.0,27.0,-100.00,ESE,123,4.0,11.0,21,0.00,,,0.00,1170.000000,,2013-05-24 19:52:00,
2013-05-24 13:00:00,71.0,25.0,-100.00,East,96,5.0,11.0,18,0.00,,,0.00,1318.000000,,2013-05-24 20:00:00,
2013-05-24 13:22:00,71.0,25.0,-100.00,East,96,5.0,11.0,18,0.00,,,0.00,1318.000000,,2013-05-24 20:22:00,
2013-05-24 13:32:00,71.0,25.0,-100.00,East,96,5.0,11.0,18,0.00,,,0.00,1318.000000,,2013-05-24 20:32:00,
2013-05-24 13:42:00,71.0,25.0,-100.00,East,96,5.0,11.0,18,0.00,,,0.00,1318.000000,,2013-05-24 20:42:00,
2013-05-24 13:52:00,71.0,25.0,-100.00,East,96,5.0,11.0,18,0.00,,,0.00,1318.000000,,2013-05-24 20:52:00,
2013-05-24 14:00:00,76.0,23.0,-100.00,ENE,73,4.0,13.0,14,0.00,,,0.00,1382.000000,,2013-05-24 21:00:00,
2013-05-24 14:22:00,76.0,23.0,-100.00,ENE,73,4.0,13.0,14,0.00,,,0.00,1382.000000,,2013-05-24 21:22:00,
2013-05-24 14:33:00,76.0,23.0,-100.00,ENE,73,4.0,13.0,14,0.00,,,0.00,1382.000000,,2013-05-24 21:33:00,
2013-05-24 14:43:00,76.0,23.0,-100.00,ENE,73,4.0,13.0,14,0.00,,,0.00,1382.000000,,2013-05-24 21:43:00,
2013-05-24 14:53:00,76.0,23.0,-100.00,ENE,73,4.0,13.0,14,0.00,,,0.00,1382.000000,,2013-05-24 21:53:00,
2013-05-24 15:00:00,79.0,26.0,-100.00,ESE,121,8.0,16.0,14,0.00,,,0.00,1365.000000,,2013-05-24 22:00:00,
2013-05-24 15:22:00,79.0,26.0,-100.00,ESE,121,8.0,16.0,14,0.00,,,0.00,1365.000000,,2013-05-24 22:22:00,
2013-05-24 15:33:00,79.0,26.0,-100.00,ESE,121,8.0,16.0,14,0.00,,,0.00,1365.000000,,2013-05-24 22:33:00,
2013-05-24 15:42:00,79.0,26.0,-100.00,ESE,121,8.0,16.0,14,0.00,,,0.00,1365.000000,,2013-05-24 22:42:00,
2013-05-24 15:52:00,79.0,26.0,-100.00,ESE,121,8.0,16.0,14,0.00,,,0.00,1365.000000,,2013-05-24 22:52:00,
2013-05-24 16:00:00,73.0,28.0,-100.00,West,278,13.0,27.0,19,0.00,,,0.00,1269.000000,,2013-05-24 23:00:00,
2013-05-24 16:22:00,73.0,28.0,-100.00,West,278,13.0,27.0,19,0.00,,,0.00,1269.000000,,2013-05-24 23:22:00,
2013-05-24 16:32:00,73.0,28.0,-100.00,West,278,13.0,27.0,19,0.00,,,0.00,1269.000000,,2013-05-24 23:32:00,
2013-05-24 16:42:00,73.0,28.0,-100.00,West,278,13.0,27.0,19,0.00,,,0.00,1269.000000,,2013-05-24 23:42:00,
2013-05-24 16:52:00,73.0,28.0,-100.00,West,278,13.0,27.0,19,0.00,,,0.00,1269.000000,,2013-05-24 23:52:00,
2013-05-24 17:00:00,72.0,29.0,-100.00,WNW,284,15.0,26.0,20,0.00,,,0.00,1060.000000,,2013-05-25 00:00:00,
2013-05-24 17:22:00,72.0,29.0,-100.00,WNW,284,15.0,26.0,20,0.00,,,0.00,1060.000000,,2013-05-25 00:22:00,
2013-05-24 17:32:00,72.0,29.0,-100.00,WNW,284,15.0,26.0,20,0.00,,,0.00,1060.000000,,2013-05-25 00:32:00,
2013-05-24 17:42:00,72.0,29.0,-100.00,WNW,284,15.0,26.0,20,0.00,,,0.00,1060.000000,,2013-05-25 00:42:00,
2013-05-24 17:52:00,72.0,29.0,-100.00,WNW,284,15.0,26.0,20,0.00,,,0.00,1060.000000,,2013-05-25 00:52:00,
2013-05-24 18:00:00,72.0,30.0,-100.00,WNW,288,14.0,26.0,21,0.00,,,0.00,887.000000,,2013-05-25 01:00:00,
2013-05-24 18:22:00,72.0,30.0,-100.00,WNW,288,14.0,26.0,21,0.00,,,0.00,887.000000,,2013-05-25 01:22:00,
2013-05-24 18:32:00,72.0,30.0,-100.00,WNW,288,14.0,26.0,21,0.00,,,0.00,887.000000,,2013-05-25 01:32:00,
2013-05-24 18:42:00,72.0,30.0,-100.00,WNW,288,14.0,26.0,21,0.00,,,0.00,887.000000,,2013-05-25 01:42:00,
2013-05-24 18:52:00,72.0,30.0,-100.00,WNW,288,14.0,26.0,21,0.00,,,0.00,887.000000,,2013-05-25 01:52:00,
2013-05-24 19:00:00,68.0,30.0,-100.00,WNW,286,14.0,25.0,24,0.00,,,0.00,273.000000,,2013-05-25 02:00:00,
2013-05-24 19:22:00,68.0,30.0,-100.00,WNW,286,14.0,25.0,24,0.00,,,0.00,273.000000,,2013-05-25 02:22:00,
2013-05-24 19:32:00,68.0,30.0,-100.00,WNW,286,14.0,25.0,24,0.00,,,0.00,273.000000,,2013-05-25 02:32:00,
2013-05-24 19:42:00,68.0,30.0,-100.00,WNW,286,14.0,25.0,24,0.00,,,0.00,273.000000,,2013-05-25 02:42:00,
2013-05-24 19:52:00,68.0,30.0,-100.00,WNW,286,14.0,25.0,24,0.00,,,0.00,273.000000,,2013-05-25 02:52:00,
2013-05-24 20:00:00,65.0,30.0,-100.00,WNW,285,15.0,26.0,27,0.00,,,0.00,55.000000,,2013-05-25 03:00:00,
2013-05-24 20:22:00,65.0,30.0,-100.00,WNW,285,15.0,26.0,27,0.00,,,0.00,55.000000,,2013-05-25 03:22:00,
2013-05-24 20:33:00,65.0,30.0,-100.00,WNW,285,15.0,26.0,27,0.00,,,0.00,55.000000,,2013-05-25 03:33:00,
2013-05-24 20:43:00,65.0,30.0,-100.00,WNW,285,15.0,26.0,27,0.00,,,0.00,55.000000,,2013-05-25 03:43:00,
2013-05-24 20:53:00,65.0,30.0,-100.00,WNW,285,15.0,26.0,27,0.00,,,0.00,55.000000,,2013-05-25 03:53:00,
2013-05-24 21:00:00,60.0,28.0,-100.00,West,275,15.0,28.0,29,0.00,,,0.00,18.000000,,2013-05-25 04:00:00,
2013-05-24 21:23:00,60.0,28.0,-100.00,West,275,15.0,28.0,29,0.00,,,0.00,18.000000,,2013-05-25 04:23:00,
2013-05-24 21:33:00,60.0,28.0,-100.00,West,275,15.0,28.0,29,0.00,,,0.00,18.000000,,2013-05-25 04:33:00,
2013-05-24 21:43:00,60.0,28.0,-100.00,West,275,15.0,28.0,29,0.00,,,0.00,18.000000,,2013-05-25 04:43:00,
2013-05-24 21:52:00,60.0,28.0,-100.00,West,275,15.0,28.0,29,0.00,,,0.00,18.000000,,2013-05-25 04:52:00,
2013-05-24 22:00:00,59.0,26.0,-100.00,West,263,4.0,28.0,28,0.00,,,0.00,0.000000,,2013-05-25 05:00:00,
2013-05-24 22:22:00,59.0,26.0,-100.00,West,263,4.0,28.0,28,0.00,,,0.00,0.000000,,2013-05-25 05:22:00,
2013-05-24 22:32:00,59.0,26.0,-100.00,West,263,4.0,28.0,28,0.00,,,0.00,0.000000,,2013-05-25 05:32:00,
2013-05-24 22:43:00,59.0,26.0,-100.00,West,263,4.0,28.0,28,0.00,,,0.00,0.000000,,2013-05-25 05:43:00,
2013-05-24 22:52:00,59.0,26.0,-100.00,West,263,4.0,28.0,28,0.00,,,0.00,0.000000,,2013-05-25 05:52:00,
2013-05-24 23:00:00,55.0,26.0,-100.00,NE,39,0.0,14.0,32,0.00,,,0.00,0.000000,,2013-05-25 06:00:00,
2013-05-24 23:22:00,55.0,26.0,-100.00,NE,39,0.0,14.0,32,0.00,,,0.00,0.000000,,2013-05-25 06:22:00,
2013-05-24 23:32:00,55.0,26.0,-100.00,NE,39,0.0,14.0,32,0.00,,,0.00,0.000000,,2013-05-25 06:32:00,
2013-05-24 23:42:00,55.0,26.0,-100.00,NE,39,0.0,14.0,32,0.00,,,0.00,0.000000,,2013-05-25 06:42:00,
2013-05-24 23:52:00,55.0,26.0,-100.00,NE,39,0.0,14.0,32,0.00,,,0.00,0.000000,,2013-05-25 06:52:00,